Location: Unspecified
(30.8889°N, 0.0000°E)
Time: 00:28:10
(UTC+00:00)

CZ-6A DEB - Visible Passes

Search period start: 04 April 2026 00:00
Search period end: 14 April 2026 00:00
Orbit: 747 x 902 km, 98.9° (Epoch: 28 March)

Date Brightness Start Highest point End Pass type
(mag) Time Alt. Az. Time Alt. Az. Time Alt. Az.
4 Apr ? 19:35:15 10° SSW 19:39:39 25° W 19:43:57 10° NW visible
5 Apr ? 19:15:08 10° S 19:20:10 40° W 19:25:02 10° NNW visible
6 Apr ? 18:55:23 10° S 19:00:42 65° WSW 19:05:50 10° NNW visible
8 Apr ? 19:59:16 10° SW 20:02:07 15° W 20:04:55 10° WNW visible
9 Apr ? 19:38:22 10° SSW 19:42:32 24° W 19:46:37 10° NW visible
10 Apr ? 19:18:09 10° SSW 19:23:00 37° W 19:27:43 10° NNW visible
11 Apr ? 18:58:18 10° S 19:03:29 61° WSW 19:08:30 10° NNW visible
13 Apr ? 20:02:23 10° WSW 20:04:50 13° W 20:07:16 10° WNW visible
